| time (UTC) | temp C | wind direction | speed KPH | gust KPH | rain 1hr cm | rain 24hr cm | rain mn cm | humidity % | barometer mb |
| 20260906223558 | 36 | 89 | 0.0 | 16.1 | 0.00 | 0.00 | 0.00 | 39 | 1010.4 |
| 20260906223057 | 36 | 89 | 1.6 | 16.1 | 0.00 | 0.00 | 0.00 | 38 | 1010.4 |
| 20260906222557 | 36 | 72 | 1.6 | 16.1 | 0.00 | 0.00 | 0.00 | 39 | 1010.4 |
| 20260906222058 | 36 | 101 | 1.6 | 11.3 | 0.00 | 0.00 | 0.00 | 39 | 1010.4 |
| 20260906221556 | 36 | 192 | 1.6 | 16.1 | 0.00 | 0.00 | 0.00 | 38 | 1010.4 |
| 20260906221054 | 36 | 202 | 4.8 | 16.1 | 0.00 | 0.00 | 0.00 | 38 | 1010.3 |
| 20260906220554 | 36 | 129 | 1.6 | 9.7 | 0.00 | 0.00 | 0.00 | 39 | 1010.4 |
| 20260906220100 | 36 | 89 | 0.0 | 9.7 | 0.00 | 0.00 | 0.00 | 39 | 1010.4 |
| 20260906215554 | 36 | 95 | 0.0 | 9.7 | 0.00 | 0.00 | 0.00 | 38 | 1010.3 |
| 20260906215054 | 36 | 91 | 1.6 | 12.9 | 0.00 | 0.00 | 0.00 | 38 | 1010.3 |
| 20260906214602 | 36 | 131 | 0.0 | 12.9 | 0.00 | 0.00 | 0.00 | 38 | 1010.4 |
| 20260906214056 | 36 | 83 | 0.0 | 19.3 | 0.00 | 0.00 | 0.00 | 39 | 1010.4 |
| 20260906213552 | 36 | 74 | 1.6 | 19.3 | 0.00 | 0.00 | 0.00 | 39 | 1010.5 |
| 20260906213055 | 36 | 81 | 4.8 | 11.3 | 0.00 | 0.00 | 0.00 | 38 | 1010.6 |
| 20260906212550 | 36 | 90 | 3.2 | 12.9 | 0.00 | 0.00 | 0.00 | 39 | 1010.7 |
| 20260906212054 | 36 | 91 | 4.8 | 16.1 | 0.00 | 0.00 | 0.00 | 39 | 1010.7 |
| 20260906211550 | 36 | 83 | 1.6 | 16.1 | 0.00 | 0.00 | 0.00 | 40 | 1010.8 |
| 20260906211050 | 36 | 123 | 0.0 | 6.4 | 0.00 | 0.00 | 0.00 | 40 | 1010.8 |
| 20260906210549 | 36 | 121 | 1.6 | 6.4 | 0.00 | 0.00 | 0.00 | 40 | 1010.9 |
| 20260906210048 | 36 | 92 | 0.0 | 16.1 | 0.00 | 0.00 | 0.00 | 39 | 1011.0 |
| 20260906205548 | 36 | 95 | 3.2 | 16.1 | 0.00 | 0.00 | 0.00 | 40 | 1011.1 |
| 20260906205047 | 37 | 79 | 1.6 | 14.5 | 0.00 | 0.00 | 0.00 | 39 | 1011.2 |
| 20260906204546 | 37 | 81 | 1.6 | 14.5 | 0.00 | 0.00 | 0.00 | 39 | 1011.2 |
| 20260906204045 | 37 | 109 | 1.6 | 12.9 | 0.00 | 0.00 | 0.00 | 39 | 1011.3 |
| 20260906203545 | 37 | 104 | 1.6 | 16.1 | 0.00 | 0.00 | 0.00 | 39 | 1011.3 |
| 20260906203044 | 37 | 78 | 3.2 | 19.3 | 0.00 | 0.00 | 0.00 | 38 | 1011.4 |
| 20260906202543 | 37 | 95 | 4.8 | 19.3 | 0.00 | 0.00 | 0.00 | 38 | 1011.5 |
| 20260906202043 | 37 | 85 | 0.0 | 14.5 | 0.00 | 0.00 | 0.00 | 39 | 1011.6 |
| 20260906201545 | 37 | 88 | 1.6 | 16.1 | 0.00 | 0.00 | 0.00 | 39 | 1011.6 |
| 20260906201043 | 36 | 62 | 1.6 | 17.7 | 0.00 | 0.00 | 0.00 | 40 | 1011.7 |
| 20260906200542 | 36 | 74 | 4.8 | 20.9 | 0.00 | 0.00 | 0.00 | 39 | 1011.7 |
| 20260906200045 | 37 | 77 | 4.8 | 20.9 | 0.00 | 0.00 | 0.00 | 39 | 1011.8 |
| 20260906195542 | 37 | 81 | 1.6 | 20.9 | 0.00 | 0.00 | 0.00 | 39 | 1011.8 |
| 20260906195041 | 37 | 91 | 3.2 | 20.9 | 0.00 | 0.00 | 0.00 | 39 | 1011.8 |
| 20260906194540 | 37 | 190 | 4.8 | 14.5 | 0.00 | 0.00 | 0.00 | 39 | 1011.9 |
| 20260906194041 | 37 | 166 | 1.6 | 8.0 | 0.00 | 0.00 | 0.00 | 39 | 1011.9 |
| 20260906193540 | 37 | 72 | 1.6 | 16.1 | 0.00 | 0.00 | 0.00 | 39 | 1012.1 |
| 20260906193040 | 37 | 86 | 4.8 | 16.1 | 0.00 | 0.00 | 0.00 | 39 | 1012.0 |
| 20260906192542 | 37 | 158 | 1.6 | 9.7 | 0.00 | 0.00 | 0.00 | 39 | 1012.1 |
| 20260906192039 | 37 | 160 | 0.0 | 12.9 | 0.00 | 0.00 | 0.00 | 39 | 1012.1 |
| 20260906191543 | 37 | 143 | 3.2 | 12.9 | 0.00 | 0.00 | 0.00 | 41 | 1012.3 |
| 20260906191041 | 36 | 83 | 0.0 | 14.5 | 0.00 | 0.00 | 0.00 | 41 | 1012.3 |
| 20260906190542 | 36 | 81 | 1.6 | 14.5 | 0.00 | 0.00 | 0.00 | 42 | 1012.4 |
| 20260906190036 | 36 | 81 | 4.8 | 14.5 | 0.00 | 0.00 | 0.00 | 42 | 1012.4 |
| 20260906185533 | 36 | 185 | 1.6 | 6.4 | 0.00 | 0.00 | 0.00 | 43 | 1012.4 |
| 20260906185033 | 36 | 185 | 1.6 | 12.9 | 0.00 | 0.00 | 0.00 | 42 | 1012.6 |
| 20260906184531 | 36 | 185 | 3.2 | 12.9 | 0.00 | 0.00 | 0.00 | 44 | 1012.5 |
| 20260906184029 | 36 | 138 | 1.6 | 12.9 | 0.00 | 0.00 | 0.00 | 45 | 1012.6 |
| 20260906183527 | 35 | 161 | 3.2 | 12.9 | 0.00 | 0.00 | 0.00 | 44 | 1012.6 |
| 20260906183027 | 35 | 82 | 3.2 | 12.9 | 0.00 | 0.00 | 0.00 | 45 | 1012.7 |
| 20260906182524 | 35 | 92 | 1.6 | 12.9 | 0.00 | 0.00 | 0.00 | 45 | 1012.8 |
| 20260906182023 | 35 | 91 | 4.8 | 19.3 | 0.00 | 0.00 | 0.00 | 44 | 1012.8 |
| 20260906181522 | 35 | 89 | 3.2 | 19.3 | 0.00 | 0.00 | 0.00 | 45 | 1012.9 |
| 20260906181021 | 35 | 113 | 1.6 | 12.9 | 0.00 | 0.00 | 0.00 | 45 | 1012.9 |
| 20260906180519 | 35 | 84 | 1.6 | 12.9 | 0.00 | 0.00 | 0.00 | 45 | 1012.9 |
| 20260906180018 | 35 | 104 | 0.0 | 14.5 | 0.00 | 0.00 | 0.00 | 45 | 1013.1 |
| 20260906175518 | 35 | 88 | 1.6 | 20.9 | 0.00 | 0.00 | 0.00 | 45 | 1013.1 |
| 20260906175017 | 35 | 76 | 9.7 | 22.5 | 0.00 | 0.00 | 0.00 | 45 | 1013.3 |
| 20260906174515 | 35 | 80 | 1.6 | 22.5 | 0.00 | 0.00 | 0.00 | 46 | 1013.3 |
| 20260906174014 | 35 | 87 | 4.8 | 16.1 | 0.00 | 0.00 | 0.00 | 47 | 1013.4 |
| 20260906173512 | 34 | 104 | 6.4 | 16.1 | 0.00 | 0.00 | 0.00 | 46 | 1013.4 |
| 20260906173011 | 34 | 111 | 1.6 | 20.9 | 0.00 | 0.00 | 0.00 | 47 | 1013.5 |
| 20260906172509 | 34 | 54 | 4.8 | 20.9 | 0.00 | 0.00 | 0.00 | 48 | 1013.6 |
| 20260906172009 | 34 | 71 | 1.6 | 17.7 | 0.00 | 0.00 | 0.00 | 48 | 1013.6 |
| 20260906171508 | 33 | 69 | 1.6 | 16.1 | 0.00 | 0.00 | 0.00 | 48 | 1013.8 |
| 20260906171005 | 33 | 87 | 1.6 | 16.1 | 0.00 | 0.00 | 0.00 | 48 | 1013.8 |
| 20260906170509 | 33 | 89 | 3.2 | 16.1 | 0.00 | 0.00 | 0.00 | 48 | 1014.0 |
| 20260906170005 | 33 | 95 | 1.6 | 16.1 | 0.00 | 0.00 | 0.00 | 48 | 1014.1 |
| 20260906165502 | 33 | 86 | 4.8 | 16.1 | 0.00 | 0.00 | 0.00 | 50 | 1014.1 |
| 20260906165100 | 33 | 77 | 1.6 | 12.9 | 0.00 | 0.00 | 0.00 | 50 | 1014.0 |
| 20260906164559 | 33 | 75 | 3.2 | 14.5 | 0.00 | 0.00 | 0.00 | 50 | 1014.0 |
| 20260906164059 | 33 | 83 | 3.2 | 14.5 | 0.00 | 0.00 | 0.00 | 51 | 1014.0 |
| 20260906163555 | 32 | 83 | 1.6 | 14.5 | 0.00 | 0.00 | 0.00 | 51 | 1013.9 |
| 20260906163114 | 32 | 80 | 1.6 | 11.3 | 0.00 | 0.00 | 0.00 | 52 | 1013.9 |
| 20260906162553 | 32 | 85 | 1.6 | 6.4 | 0.00 | 0.00 | 0.00 | 54 | 1013.9 |
| 20260906162051 | 32 | 81 | 1.6 | 14.5 | 0.00 | 0.00 | 0.00 | 53 | 1013.8 |
| 20260906161551 | 32 | 81 | 3.2 | 14.5 | 0.00 | 0.00 | 0.00 | 54 | 1013.9 |
| 20260906161049 | 31 | 95 | 0.0 | 6.4 | 0.00 | 0.00 | 0.00 | 55 | 1013.8 |
| 20260906160549 | 31 | 95 | 1.6 | 11.3 | 0.00 | 0.00 | 0.00 | 55 | 1013.9 |
| 20260906160047 | 31 | 79 | 1.6 | 14.5 | 0.00 | 0.00 | 0.00 | 56 | 1013.8 |
| 20260906155545 | 31 | 78 | 4.8 | 14.5 | 0.00 | 0.00 | 0.00 | 57 | 1013.7 |
| 20260906155043 | 30 | 104 | 1.6 | 11.3 | 0.00 | 0.00 | 0.00 | 58 | 1013.6 |
| 20260906154542 | 30 | 111 | 0.0 | 11.3 | 0.00 | 0.00 | 0.00 | 58 | 1013.7 |
| 20260906154041 | 30 | 109 | 1.6 | 11.3 | 0.00 | 0.00 | 0.00 | 59 | 1013.7 |
| 20260906153539 | 30 | 94 | 0.0 | 9.7 | 0.00 | 0.00 | 0.00 | 59 | 1013.7 |
| 20260906153045 | 30 | 94 | 0.0 | 9.7 | 0.00 | 0.00 | 0.00 | 61 | 1013.7 |
| 20260906152537 | 29 | 94 | 3.2 | 11.3 | 0.00 | 0.00 | 0.00 | 61 | 1013.6 |
| 20260906152036 | 29 | 95 | 4.8 | 12.9 | 0.00 | 0.00 | 0.00 | 60 | 1013.6 |
| 20260906151536 | 28 | 96 | 4.8 | 12.9 | 0.00 | 0.00 | 0.00 | 60 | 1013.7 |
| 20260906151038 | 28 | 99 | 6.4 | 12.9 | 0.00 | 0.00 | 0.00 | 60 | 1013.5 |
| 20260906150534 | 28 | 123 | 0.0 | 6.4 | 0.00 | 0.00 | 0.00 | 60 | 1013.5 |
| 20260906150034 | 28 | 123 | 3.2 | 9.7 | 0.00 | 0.00 | 0.00 | 60 | 1013.5 |
| 20260906145533 | 28 | 124 | 3.2 | 9.7 | 0.00 | 0.00 | 0.00 | 60 | 1013.5 |
| 20260906145033 | 27 | 138 | 0.0 | 6.4 | 0.00 | 0.00 | 0.00 | 60 | 1013.6 |
| 20260906144535 | 27 | 138 | 1.6 | 8.0 | 0.00 | 0.00 | 0.00 | 60 | 1013.6 |
| 20260906144031 | 27 | 141 | 3.2 | 8.0 | 0.00 | 0.00 | 0.00 | 60 | 1013.6 |
| 20260906143535 | 27 | 145 | 0.0 | 8.0 | 0.00 | 0.00 | 0.00 | 60 | 1013.6 |
| 20260906143033 | 27 | 146 | 4.8 | 8.0 | 0.00 | 0.00 | 0.00 | 61 | 1013.7 |
| 20260906142531 | 27 | 156 | 0.0 | 4.8 | 0.00 | 0.00 | 0.00 | 62 | 1013.7 |
| 20260906142031 | 27 | 156 | 0.0 | 8.0 | 0.00 | 0.00 | 0.00 | 62 | 1013.8 |
| 20260906141530 | 26 | 156 | 3.2 | 8.0 | 0.00 | 0.00 | 0.00 | 62 | 1013.7 |
| 20260906141030 | 26 | 171 | 1.6 | 6.4 | 0.00 | 0.00 | 0.00 | 63 | 1013.6 |
| 20260906140531 | 26 | 175 | 0.0 | 4.8 | 0.00 | 0.00 | 0.00 | 63 | 1013.7 |
| 20260906140029 | 26 | 175 | 0.0 | 6.4 | 0.00 | 0.00 | 0.00 | 64 | 1013.6 |
| 20260906135529 | 26 | 175 | 3.2 | 6.4 | 0.00 | 0.00 | 0.00 | 64 | 1013.5 |
| 20260906135028 | 26 | 175 | 0.0 | 6.4 | 0.00 | 0.00 | 0.00 | 64 | 1013.5 |
| 20260906134532 | 26 | 175 | 1.6 | 6.4 | 0.00 | 0.00 | 0.00 | 66 | 1013.4 |
| 20260906134027 | 25 | 175 | 3.2 | 6.4 | 0.00 | 0.00 | 0.00 | 66 | 1013.4 |
| 20260906133526 | 25 | 180 | 1.6 | 6.4 | 0.00 | 0.00 | 0.00 | 67 | 1013.5 |
| 20260906133026 | 25 | 180 | 1.6 | 6.4 | 0.00 | 0.00 | 0.00 | 67 | 1013.5 |
| 20260906132526 | 25 | 185 | 0.0 | 4.8 | 0.00 | 0.00 | 0.00 | 68 | 1013.6 |
| 20260906132024 | 25 | 185 | 0.0 | 1.6 | 0.00 | 0.00 | 0.00 | 68 | 1013.7 |
| 20260906131524 | 25 | 185 | 0.0 | 0.0 | 0.00 | 0.00 | 0.00 | 68 | 1013.6 |
| 20260906131023 | 25 | 185 | 0.0 | 0.0 | 0.00 | 0.00 | 0.00 | 68 | 1013.6 |
| 20260906130523 | 24 | 185 | 0.0 | 0.0 | 0.00 | 0.00 | 0.00 | 67 | 1013.5 |
| 20260906130026 | 24 | 185 | 0.0 | 0.0 | 0.00 | 0.00 | 0.00 | 67 | 1013.4 |
| 20260906125522 | 24 | 185 | 0.0 | 0.0 | 0.00 | 0.00 | 0.00 | 67 | 1013.4 |
| 20260906125020 | 24 | 185 | 0.0 | 0.0 | 0.00 | 0.00 | 0.00 | 67 | 1013.2 |
| 20260906124519 | 24 | 185 | 0.0 | 0.0 | 0.00 | 0.00 | 0.00 | 67 | 1013.3 |
| 20260906124020 | 24 | 185 | 0.0 | 0.0 | 0.00 | 0.00 | 0.00 | 66 | 1013.2 |
| 20260906123518 | 24 | 185 | 0.0 | 0.0 | 0.00 | 0.00 | 0.00 | 66 | 1013.2 |
| 20260906123018 | 24 | 185 | 0.0 | 1.6 | 0.00 | 0.00 | 0.00 | 66 | 1013.2 |
| 20260906122518 | 24 | 185 | 0.0 | 1.6 | 0.00 | 0.00 | 0.00 | 66 | 1013.2 |
| 20260906122019 | 24 | 185 | 0.0 | 0.0 | 0.00 | 0.00 | 0.00 | 66 | 1013.2 |
| 20260906121517 | 24 | 185 | 0.0 | 1.6 | 0.00 | 0.00 | 0.00 | 66 | 1013.1 |
| 20260906121018 | 24 | 185 | 0.0 | 1.6 | 0.00 | 0.00 | 0.00 | 66 | 1013.0 |
| 20260906120516 | 24 | 185 | 0.0 | 0.0 | 0.00 | 0.00 | 0.00 | 65 | 1013.0 |
| 20260906120015 | 24 | 185 | 0.0 | 0.0 | 0.00 | 0.00 | 0.00 | 65 | 1012.9 |
| 20260906115515 | 24 | 185 | 0.0 | 0.0 | 0.00 | 0.00 | 0.00 | 65 | 1012.8 |
| 20260906115013 | 24 | 185 | 0.0 | 0.0 | 0.00 | 0.00 | 0.00 | 65 | 1012.8 |
| 20260906114513 | 24 | 185 | 0.0 | 0.0 | 0.00 | 0.00 | 0.00 | 65 | 1012.7 |
| 20260906114017 | 25 | 185 | 0.0 | 0.0 | 0.00 | 0.00 | 0.00 | 65 | 1012.8 |
| 20260906113512 | 25 | 185 | 0.0 | 1.6 | 0.00 | 0.00 | 0.00 | 65 | 1012.7 |
| 20260906113012 | 25 | 185 | 0.0 | 1.6 | 0.00 | 0.00 | 0.00 | 65 | 1012.8 |
| 20260906112511 | 25 | 185 | 0.0 | 0.0 | 0.00 | 0.00 | 0.00 | 65 | 1012.6 |
| 20260906112115 | 25 | 185 | 0.0 | 0.0 | 0.00 | 0.00 | 0.00 | 65 | 1012.7 |
| 20260906111511 | 25 | 185 | 0.0 | 0.0 | 0.00 | 0.00 | 0.00 | 65 | 1012.7 |
| 20260906111010 | 25 | 185 | 0.0 | 0.0 | 0.00 | 0.00 | 0.00 | 65 | 1012.6 |
| 20260906110512 | 25 | 185 | 0.0 | 1.6 | 0.00 | 0.00 | 0.00 | 65 | 1012.7 |
| 20260906110010 | 25 | 185 | 0.0 | 1.6 | 0.00 | 0.00 | 0.00 | 65 | 1012.5 |
| 20260906105509 | 25 | 185 | 0.0 | 1.6 | 0.00 | 0.00 | 0.00 | 66 | 1012.5 |
| 20260906105009 | 25 | 185 | 0.0 | 0.0 | 0.00 | 0.00 | 0.00 | 66 | 1012.5 |
| 20260906104507 | 25 | 185 | 0.0 | 0.0 | 0.00 | 0.00 | 0.00 | 66 | 1012.3 |
| 20260906104009 | 25 | 185 | 0.0 | 0.0 | 0.00 | 0.00 | 0.00 | 66 | 1012.4 |
| 20260906103506 | 25 | 185 | 0.0 | 0.0 | 0.00 | 0.00 | 0.00 | 66 | 1012.3 |
| 20260906103007 | 25 | 185 | 0.0 | 1.6 | 0.00 | 0.00 | 0.00 | 66 | 1012.3 |
| 20260906102506 | 25 | 185 | 0.0 | 1.6 | 0.00 | 0.00 | 0.00 | 66 | 1012.4 |
| 20260906102006 | 25 | 185 | 0.0 | 1.6 | 0.00 | 0.00 | 0.00 | 66 | 1012.3 |
| 20260906101505 | 25 | 185 | 0.0 | 1.6 | 0.00 | 0.00 | 0.00 | 66 | 1012.4 |
| 20260906101004 | 25 | 185 | 0.0 | 1.6 | 0.00 | 0.00 | 0.00 | 66 | 1012.3 |
| 20260906100504 | 25 | 185 | 0.0 | 1.6 | 0.00 | 0.00 | 0.00 | 66 | 1012.2 |
| 20260906100004 | 25 | 185 | 0.0 | 1.6 | 0.00 | 0.00 | 0.00 | 66 | 1012.3 |
| 20260906095502 | 26 | 185 | 0.0 | 1.6 | 0.00 | 0.00 | 0.00 | 66 | 1012.2 |
| 20260906095002 | 26 | 185 | 0.0 | 1.6 | 0.00 | 0.00 | 0.00 | 66 | 1012.2 |
| 20260906094501 | 26 | 185 | 0.0 | 0.0 | 0.00 | 0.00 | 0.00 | 66 | 1012.1 |
| 20260906094001 | 26 | 185 | 0.0 | 0.0 | 0.00 | 0.00 | 0.00 | 66 | 1012.1 |
| 20260906093604 | 26 | 185 | 0.0 | 0.0 | 0.00 | 0.00 | 0.00 | 66 | 1012.0 |
| 20260906093100 | 26 | 185 | 0.0 | 0.0 | 0.00 | 0.00 | 0.00 | 66 | 1011.9 |
| 20260906092601 | 26 | 185 | 0.0 | 0.0 | 0.00 | 0.00 | 0.00 | 66 | 1011.9 |
| 20260906092059 | 26 | 185 | 0.0 | 0.0 | 0.00 | 0.00 | 0.00 | 66 | 1011.9 |
| 20260906091559 | 26 | 185 | 0.0 | 3.2 | 0.00 | 0.00 | 0.00 | 66 | 1011.9 |
| 20260906091100 | 26 | 185 | 0.0 | 0.0 | 0.00 | 0.00 | 0.00 | 66 | 1011.8 |
| 20260906090558 | 26 | 185 | 0.0 | 3.2 | 0.00 | 0.00 | 0.00 | 65 | 1011.8 |
| 20260906090101 | 26 | 185 | 0.0 | 3.2 | 0.00 | 0.00 | 0.00 | 65 | 1011.7 |
| 20260906085559 | 26 | 185 | 0.0 | 4.8 | 0.00 | 0.00 | 0.00 | 65 | 1011.7 |
| 20260906085100 | 26 | 185 | 0.0 | 6.4 | 0.00 | 0.00 | 0.00 | 65 | 1011.7 |
| 20260906084557 | 26 | 185 | 0.0 | 6.4 | 0.00 | 0.00 | 0.00 | 65 | 1011.7 |
| 20260906084055 | 26 | 185 | 0.0 | 6.4 | 0.00 | 0.00 | 0.00 | 65 | 1011.7 |
| 20260906083555 | 26 | 185 | 0.0 | 8.0 | 0.00 | 0.00 | 0.00 | 65 | 1011.6 |
| 20260906083055 | 26 | 185 | 0.0 | 8.0 | 0.00 | 0.00 | 0.00 | 65 | 1011.6 |
| 20260906082554 | 26 | 185 | 0.0 | 3.2 | 0.00 | 0.00 | 0.00 | 65 | 1011.5 |
| 20260906082054 | 26 | 185 | 0.0 | 3.2 | 0.00 | 0.00 | 0.00 | 65 | 1011.6 |
| 20260906081554 | 26 | 185 | 0.0 | 4.8 | 0.00 | 0.00 | 0.00 | 65 | 1011.6 |
| 20260906081055 | 26 | 185 | 1.6 | 4.8 | 0.00 | 0.00 | 0.00 | 65 | 1011.5 |
| 20260906080554 | 27 | 185 | 0.0 | 4.8 | 0.00 | 0.00 | 0.00 | 64 | 1011.7 |
| 20260906080058 | 27 | 185 | 0.0 | 4.8 | 0.00 | 0.00 | 0.00 | 64 | 1011.5 |
| 20260906075552 | 27 | 185 | 0.0 | 3.2 | 0.00 | 0.00 | 0.00 | 64 | 1011.8 |
| 20260906075053 | 27 | 185 | 0.0 | 1.6 | 0.00 | 0.00 | 0.00 | 64 | 1011.9 |
| 20260906074558 | 27 | 185 | 0.0 | 1.6 | 0.00 | 0.00 | 0.00 | 64 | 1011.8 |
| 20260906074050 | 27 | 185 | 0.0 | 1.6 | 0.00 | 0.00 | 0.00 | 64 | 1011.8 |
| 20260906073550 | 27 | 185 | 0.0 | 1.6 | 0.00 | 0.00 | 0.00 | 63 | 1011.7 |
| 20260906073050 | 27 | 185 | 0.0 | 1.6 | 0.00 | 0.00 | 0.00 | 63 | 1011.7 |
| 20260906072552 | 27 | 185 | 0.0 | 3.2 | 0.00 | 0.00 | 0.00 | 63 | 1011.5 |
| 20260906072048 | 27 | 185 | 0.0 | 3.2 | 0.00 | 0.00 | 0.00 | 63 | 1011.7 |
| 20260906071549 | 27 | 185 | 0.0 | 3.2 | 0.00 | 0.00 | 0.00 | 62 | 1011.8 |
| 20260906071046 | 27 | 185 | 0.0 | 3.2 | 0.00 | 0.00 | 0.00 | 62 | 1011.9 |
| 20260906070546 | 27 | 185 | 0.0 | 6.4 | 0.00 | 0.00 | 0.00 | 62 | 1012.0 |
| 20260906070046 | 27 | 185 | 0.0 | 4.8 | 0.00 | 0.00 | 0.00 | 62 | 1012.0 |
| 20260906065547 | 27 | 185 | 0.0 | 8.0 | 0.00 | 0.00 | 0.00 | 62 | 1012.1 |
| 20260906065045 | 27 | 185 | 0.0 | 4.8 | 0.00 | 0.00 | 0.00 | 62 | 1012.1 |
| 20260906064544 | 27 | 185 | 0.0 | 4.8 | 0.00 | 0.00 | 0.00 | 61 | 1011.9 |
| 20260906064044 | 28 | 185 | 0.0 | 6.4 | 0.00 | 0.00 | 0.00 | 61 | 1012.0 |
| 20260906063543 | 28 | 185 | 1.6 | 6.4 | 0.00 | 0.00 | 0.00 | 61 | 1012.0 |
| 20260906063043 | 28 | 185 | 0.0 | 6.4 | 0.00 | 0.00 | 0.00 | 61 | 1012.0 |
| 20260906062542 | 28 | 185 | 0.0 | 4.8 | 0.00 | 0.00 | 0.00 | 61 | 1011.9 |
| 20260906062044 | 28 | 185 | 0.0 | 4.8 | 0.00 | 0.00 | 0.00 | 61 | 1011.9 |
| 20260906061542 | 28 | 185 | 0.0 | 3.2 | 0.00 | 0.00 | 0.00 | 60 | 1011.9 |
| 20260906061044 | 28 | 185 | 0.0 | 3.2 | 0.00 | 0.00 | 0.00 | 60 | 1011.9 |
| 20260906060541 | 28 | 185 | 0.0 | 1.6 | 0.00 | 0.00 | 0.00 | 60 | 1012.0 |
| 20260906060052 | 28 | 185 | 0.0 | 3.2 | 0.00 | 0.00 | 0.00 | 60 | 1012.0 |
| 20260906055543 | 28 | 185 | 0.0 | 6.4 | 0.00 | 0.00 | 0.00 | 60 | 1012.0 |
| 20260906055041 | 28 | 185 | 0.0 | 6.4 | 0.00 | 0.00 | 0.00 | 59 | 1012.1 |
| 20260906054540 | 28 | 185 | 1.6 | 6.4 | 0.00 | 0.00 | 0.00 | 59 | 1012.1 |
| 20260906054039 | 28 | 185 | 0.0 | 6.4 | 0.00 | 0.00 | 0.00 | 59 | 1012.2 |
| 20260906053538 | 28 | 185 | 1.6 | 6.4 | 0.00 | 0.00 | 0.00 | 60 | 1012.1 |
| 20260906053038 | 28 | 185 | 0.0 | 1.6 | 0.00 | 0.00 | 0.00 | 60 | 1012.1 |
| 20260906052541 | 28 | 185 | 0.0 | 4.8 | 0.00 | 0.00 | 0.00 | 60 | 1012.0 |
| 20260906052037 | 28 | 185 | 0.0 | 4.8 | 0.00 | 0.00 | 0.00 | 60 | 1011.9 |
| 20260906051539 | 28 | 185 | 0.0 | 4.8 | 0.00 | 0.00 | 0.00 | 60 | 1011.9 |
| 20260906051036 | 28 | 185 | 0.0 | 4.8 | 0.00 | 0.00 | 0.00 | 60 | 1011.8 |
| 20260906050535 | 28 | 185 | 0.0 | 4.8 | 0.00 | 0.00 | 0.00 | 60 | 1012.0 |
| 20260906050034 | 28 | 185 | 0.0 | 4.8 | 0.00 | 0.00 | 0.00 | 59 | 1012.0 |
| 20260906045537 | 28 | 185 | 0.0 | 6.4 | 0.00 | 0.00 | 0.00 | 59 | 1011.9 |
| 20260906045033 | 29 | 185 | 1.6 | 6.4 | 0.00 | 0.00 | 0.00 | 59 | 1011.9 |
| 20260906044535 | 29 | 185 | 1.6 | 6.4 | 0.00 | 0.00 | 0.00 | 59 | 1012.0 |
| 20260906044034 | 29 | 185 | 0.0 | 4.8 | 0.00 | 0.00 | 0.00 | 59 | 1012.0 |
| 20260906043533 | 29 | 185 | 0.0 | 4.8 | 0.00 | 0.00 | 0.00 | 59 | 1012.0 |
| 20260906043036 | 29 | 185 | 0.0 | 3.2 | 0.00 | 0.00 | 0.00 | 59 | 1012.0 |
| 20260906042533 | 29 | 185 | 0.0 | 3.2 | 0.00 | 0.00 | 0.00 | 58 | 1012.1 |
| 20260906042032 | 29 | 185 | 0.0 | 4.8 | 0.00 | 0.00 | 0.00 | 58 | 1012.0 |
| 20260906041540 | 29 | 185 | 0.0 | 4.8 | 0.00 | 0.00 | 0.00 | 58 | 1012.0 |
| 20260906041033 | 29 | 185 | 0.0 | 4.8 | 0.00 | 0.00 | 0.00 | 58 | 1012.0 |
| 20260906040534 | 29 | 185 | 0.0 | 9.7 | 0.00 | 0.00 | 0.00 | 58 | 1012.0 |
| 20260906040036 | 29 | 185 | 1.6 | 6.4 | 0.00 | 0.00 | 0.00 | 58 | 1012.1 |
| 20260906035531 | 30 | 185 | 0.0 | 4.8 | 0.00 | 0.00 | 0.00 | 58 | 1012.0 |
| 20260906035033 | 30 | 185 | 0.0 | 6.4 | 0.00 | 0.00 | 0.00 | 58 | 1012.1 |
| 20260906034534 | 30 | 185 | 0.0 | 6.4 | 0.00 | 0.00 | 0.00 | 58 | 1012.1 |
| 20260906034034 | 30 | 185 | 0.0 | 6.4 | 0.00 | 0.00 | 0.00 | 58 | 1012.0 |
| 20260906033531 | 30 | 185 | 0.0 | 8.0 | 0.00 | 0.00 | 0.00 | 58 | 1011.9 |
| 20260906033032 | 30 | 185 | 0.0 | 9.7 | 0.00 | 0.00 | 0.00 | 57 | 1011.9 |
| 20260906032530 | 30 | 185 | 3.2 | 9.7 | 0.00 | 0.00 | 0.00 | 57 | 1012.0 |
| 20260906032031 | 30 | 185 | 0.0 | 12.9 | 0.00 | 0.00 | 0.00 | 57 | 1012.1 |
| 20260906031530 | 30 | 185 | 1.6 | 12.9 | 0.00 | 0.00 | 0.00 | 57 | 1012.2 |
| 20260906031033 | 30 | 185 | 1.6 | 9.7 | 0.00 | 0.00 | 0.00 | 57 | 1012.0 |
| 20260906030531 | 30 | 185 | 1.6 | 9.7 | 0.00 | 0.00 | 0.00 | 57 | 1012.1 |
| 20260906030031 | 30 | 185 | 0.0 | 9.7 | 0.00 | 0.00 | 0.00 | 57 | 1012.1 |
| 20260906025530 | 30 | 190 | 1.6 | 9.7 | 0.00 | 0.00 | 0.00 | 56 | 1012.1 |
| 20260906025030 | 30 | 185 | 0.0 | 9.7 | 0.00 | 0.00 | 0.00 | 56 | 1012.0 |
| 20260906024531 | 30 | 185 | 1.6 | 9.7 | 0.00 | 0.00 | 0.00 | 56 | 1011.9 |
| 20260906024029 | 30 | 189 | 0.0 | 9.7 | 0.00 | 0.00 | 0.00 | 56 | 1011.9 |
| 20260906023529 | 30 | 189 | 1.6 | 9.7 | 0.00 | 0.00 | 0.00 | 55 | 1011.7 |
| 20260906023032 | 30 | 190 | 1.6 | 8.0 | 0.00 | 0.00 | 0.00 | 55 | 1011.6 |
| 20260906022528 | 30 | 185 | 0.0 | 6.4 | 0.00 | 0.00 | 0.00 | 55 | 1011.5 |
| 20260906022037 | 31 | 190 | 1.6 | 8.0 | 0.00 | 0.00 | 0.00 | 55 | 1012.0 |
| 20260906021529 | 31 | 189 | 1.6 | 8.0 | 0.00 | 0.00 | 0.00 | 54 | 1011.5 |
| 20260906021028 | 31 | 185 | 1.6 | 6.4 | 0.00 | 0.00 | 0.00 | 54 | 1011.4 |
| 20260906020529 | 31 | 185 | 1.6 | 6.4 | 0.00 | 0.00 | 0.00 | 54 | 1011.4 |
| 20260906020027 | 31 | 185 | 0.0 | 14.5 | 0.00 | 0.00 | 0.00 | 53 | 1011.3 |
| 20260906015530 | 31 | 199 | 0.0 | 12.9 | 0.00 | 0.00 | 0.00 | 53 | 1011.3 |
| 20260906015028 | 31 | 201 | 1.6 | 12.9 | 0.00 | 0.00 | 0.00 | 53 | 1011.0 |
| 20260906014533 | 31 | 180 | 0.0 | 6.4 | 0.00 | 0.00 | 0.00 | 53 | 1011.1 |
| 20260906014029 | 31 | 180 | 0.0 | 6.4 | 0.00 | 0.00 | 0.00 | 52 | 1011.1 |
| 20260906013527 | 32 | 185 | 0.0 | 8.0 | 0.00 | 0.00 | 0.00 | 51 | 1011.0 |
| 20260906013027 | 32 | 185 | 0.0 | 8.0 | 0.00 | 0.00 | 0.00 | 51 | 1010.9 |
| 20260906012527 | 32 | 185 | 1.6 | 8.0 | 0.00 | 0.00 | 0.00 | 50 | 1010.8 |
| 20260906012031 | 32 | 175 | 0.0 | 8.0 | 0.00 | 0.00 | 0.00 | 49 | 1010.7 |
| 20260906011626 | 32 | 175 | 0.0 | 8.0 | 0.00 | 0.00 | 0.00 | 48 | 1010.6 |
| 20260906011025 | 33 | 175 | 1.6 | 8.0 | 0.00 | 0.00 | 0.00 | 48 | 1010.6 |
| 20260906010525 | 33 | 164 | 0.0 | 4.8 | 0.00 | 0.00 | 0.00 | 48 | 1010.5 |
| 20260906010026 | 33 | 152 | 0.0 | 12.9 | 0.00 | 0.00 | 0.00 | 47 | 1010.3 |
| 20260906005525 | 33 | 121 | 1.6 | 12.9 | 0.00 | 0.00 | 0.00 | 46 | 1010.2 |
| 20260906005029 | 33 | 80 | 0.0 | 3.2 | 0.00 | 0.00 | 0.00 | 44 | 1010.1 |
| 20260906004525 | 33 | 80 | 0.0 | 3.2 | 0.00 | 0.00 | 0.00 | 44 | 1010.0 |
| 20260906004024 | 33 | 80 | 0.0 | 3.2 | 0.00 | 0.00 | 0.00 | 44 | 1010.0 |
| 20260906003524 | 33 | 80 | 0.0 | 3.2 | 0.00 | 0.00 | 0.00 | 44 | 1010.0 |
| 20260906003024 | 34 | 80 | 0.0 | 3.2 | 0.00 | 0.00 | 0.00 | 43 | 1010.0 |
| 20260906002524 | 34 | 80 | 0.0 | 3.2 | 0.00 | 0.00 | 0.00 | 44 | 1010.5 |
| 20260906002024 | 34 | 80 | 0.0 | 3.2 | 0.00 | 0.00 | 0.00 | 44 | 1010.1 |
| 20260906001523 | 34 | 80 | 0.0 | 6.4 | 0.00 | 0.00 | 0.00 | 43 | 1010.1 |
| 20260906001023 | 34 | 80 | 0.0 | 6.4 | 0.00 | 0.00 | 0.00 | 43 | 1010.1 |
| 20260906000528 | 35 | 79 | 1.6 | 9.7 | 0.00 | 0.00 | 0.00 | 42 | 1010.1 |
| 20260906000023 | 35 | 78 | 1.6 | 11.3 | 0.00 | 0.00 | 0.00 | 42 | 1010.0 |
| 20260905235523 | 35 | 79 | 0.0 | 11.3 | 0.00 | 0.00 | 0.00 | 41 | 1010.0 |
| 20260905235022 | 35 | 81 | 1.6 | 6.4 | 0.00 | 0.00 | 0.00 | 42 | 1010.0 |
| 20260905234521 | 35 | 79 | 0.0 | 11.3 | 0.00 | 0.00 | 0.00 | 41 | 1009.8 |
| 20260905234023 | 35 | 77 | 3.2 | 11.3 | 0.00 | 0.00 | 0.00 | 42 | 1009.9 |
| 20260905233521 | 35 | 80 | 3.2 | 11.3 | 0.00 | 0.00 | 0.00 | 41 | 1009.9 |
| 20260905233020 | 35 | 71 | 0.0 | 11.3 | 0.00 | 0.00 | 0.00 | 41 | 1009.9 |
| 20260905232523 | 35 | 71 | 1.6 | 11.3 | 0.00 | 0.00 | 0.00 | 41 | 1009.9 |
| 20260905232020 | 35 | 80 | 0.0 | 16.1 | 0.00 | 0.00 | 0.00 | 41 | 1009.9 |
| 20260905231521 | 35 | 80 | 3.2 | 16.1 | 0.00 | 0.00 | 0.00 | 40 | 1010.0 |
| 20260905231020 | 35 | 80 | 6.4 | 16.1 | 0.00 | 0.00 | 0.00 | 40 | 1010.0 |
| 20260905230524 | 35 | 78 | 3.2 | 14.5 | 0.00 | 0.00 | 0.00 | 41 | 1010.0 |
| 20260905230021 | 35 | 81 | 4.8 | 14.5 | 0.00 | 0.00 | 0.00 | 40 | 1010.0 |
| 20260905225520 | 35 | 67 | 4.8 | 12.9 | 0.00 | 0.00 | 0.00 | 40 | 1009.9 |
| 20260905225020 | 35 | 75 | 0.0 | 11.3 | 0.00 | 0.00 | 0.00 | 40 | 1009.9 |
| 20260905224521 | 35 | 76 | 4.8 | 12.9 | 0.00 | 0.00 | 0.00 | 40 | 1009.9 |
| 20260905224019 | 35 | 74 | 3.2 | 12.9 | 0.00 | 0.00 | 0.00 | 40 | 1009.8 |